User: anonymous   Login
Location: Mactaquac Provincial Park
(45.9573°N, 66.8897°W)
Time: 14:04:04
(UTC-04:00)
Language:

CENTAUR R/B - Orbit

View from above orbital plane
View from above orbital plane
View from above satellite
View from above satellite

Ground track
Ground track

The orbit data is extracted from the following two-line orbital elements,

1 26906U 01040B   17049.78717436 0.00000020  00000-0  24431-4 0    05
2 26906  63.4525 276.8878 0339000 342.2415  17.7585 13.44004223    08
Epoch (UTC): 18 February 2017 18:53:31
Eccentricity: 0.0339000
inclination: 63.4525°
perigee height: 841 km
apogee height: 1348 km
right ascension of ascending node: 276.8878°
argument of perigee: 342.2415°
revolutions per day: 13.44004223
mean anomaly at epoch: 17.7585°
orbit number at epoch: 0

The dashed part of the orbit path shows where the satellite is in the earth's shadow,  

DLR